Location: Baia Mare
(47.6567°N, 23.5850°E)
Time: 12:33:37
(UTC+03:00)

ISS - Pass Details

Date: 24 May 2018
Orbit: 402 x 407 km, 51.6° (Epoch: 27 May)

Event Time Altitude Azimuth Distance (km) Brightness Sun altitude
Rises 00:45:29 0° 283° (WNW) 2,320 0.3 -21.1°
Reaches altitude 10° 00:47:39 10° 291° (WNW) 1,459 -0.7 -21.2°
Maximum altitude 00:50:45 39° 2° (N) 622 -2.4 -21.3°
Drops below altitude 10° 00:53:51 10° 74° (ENE) 1,458 -0.9 -21.3°
Enters shadow 00:55:31 - 81° (E) 2,119 -0.2 -21.4°
